Location: Bellerive
(46.9237°N, 7.0223°E)
Time: 23:09:33
(UTC+00:00)

SL-16 R/B - Pass Details

Date: 09 April 2020
Orbit: 985 x 1007 km, 99.5° (Epoch: 30 May)

Event Time Altitude Azimuth Distance (km) Brightness Sun altitude
Exits shadow 23:48:39 25° 77° (ENE) 1,897 4.1 -34.9°
Maximum altitude 23:49:53 27° 58° (ENE) 1,826 4.1 -34.9°
Drops below altitude 10° 23:54:56 10° 4° (N) 2,774 5.7 -34.8°
Sets 23:57:47 0° 353° (N) 3,724 6.5 -34.8°
